This is the latest recevied weather packets stored in our database for station/object KB1YYC. If no packets are shown the sender has not sent any weather packets the latest 10 day(s).
| Time | Temp. | Humidity | Pressure | Rain* | Wind** | Luminosity | Snow |
|---|---|---|---|---|---|---|---|
| 1777914534 | 18.89° C | 34% | 1005.8 hPa | 0 mm | - | 204 W/m² | - |
| 1777914230 | 19.44° C | 34% | 1005.7 hPa | 0 mm | - | 222 W/m² | - |
| 1777913927 | 19.44° C | 36% | 1005.6 hPa | 0 mm | - | 572 W/m² | - |
| 1777913623 | 19.44° C | 35% | 1005.7 hPa | 0 mm | - | 158 W/m² | - |
| 1777913320 | 19.44° C | 35% | 1005.7 hPa | 0 mm | - | 259 W/m² | - |
| 1777913017 | 18.89° C | 34% | 1005.8 hPa | 0 mm | - | 874 W/m² | - |
| 1777912713 | 18.33° C | 35% | 1005.8 hPa | 0 mm | - | 385 W/m² | - |
| 1777912409 | 18.89° C | 35% | 1005.7 hPa | 0 mm | - | 212 W/m² | - |
| 1777912105 | 19.44° C | 35% | 1005.8 hPa | 0 mm | - | 308 W/m² | - |
| 1777911801 | 18.89° C | 36% | 1005.7 hPa | 0 mm | - | 319 W/m² | - |
| 1777911498 | 19.44° C | 35% | 1005.8 hPa | 0 mm | - | 223 W/m² | - |
| 1777911195 | 20° C | 34% | 1005.6 hPa | 0 mm | - | 618 W/m² | - |
| 1777910892 | 20.56° C | 34% | 1005.7 hPa | 0 mm | - | 768 W/m² | - |
| 1777910589 | 20° C | 36% | 1005.7 hPa | 0 mm | - | 778 W/m² | - |
| 1777910286 | 19.44° C | 37% | 1005.8 hPa | 0 mm | - | 802 W/m² | - |
| 1777909983 | 19.44° C | 35% | 1006 hPa | 0 mm | - | 774 W/m² | - |
| 1777909680 | 18.89° C | 37% | 1006.4 hPa | 0 mm | - | 759 W/m² | - |
| 1777909377 | 18.89° C | 37% | 1006.2 hPa | 0 mm | - | 744 W/m² | - |
| 1777909075 | 19.44° C | 37% | 1006.3 hPa | 0 mm | - | 743 W/m² | - |
| 1777908772 | 18.89° C | 39% | 1006.4 hPa | 0 mm | - | 738 W/m² | - |
| 1777908469 | 18.33° C | 39% | 1006.4 hPa | 0 mm | - | 737 W/m² | - |
| 1777908166 | 18.33° C | 40% | 1006.4 hPa | 0 mm | - | 740 W/m² | - |
| 1777907862 | 18.33° C | 41% | 1006.5 hPa | 0 mm | - | 700 W/m² | - |
| 1777907558 | 17.78° C | 41% | 1006.6 hPa | 0 mm | - | 729 W/m² | - |
| 1777907254 | 17.78° C | 43% | 1006.7 hPa | 0 mm | - | 735 W/m² | - |
* Rain latest hour (hover to see other rain measurements)
** Current wind speed in m/s (hover to see current wind gust speed)